This demonstration page uses our WeatherBlox Daily Observations layout. Learn more.

Left ArrowRight Arrow

34.02893, -84.19858

Hourly Observations for June 24, 2022

Temp ( °F °C ) Dew Point ( °F °C ) Humidity (%) Winds ( mph kmh ) Pressure ( in mb ) Visibility ( mi km ) Precip ( " mm )
12:53 am 00:53 Clear 78 25.6 62 16.7 58 58 N 6 9 29.84 1011 10 16 0.00 0.00
1:53 am 01:53 Clear 76 24.4 62 16.7 62 62 N 6 9 29.84 1011 10 16 0.00 0.00
2:53 am 02:53 Clear 78 25.6 63 17.2 60 60 Calm 29.83 1010 10 16 0.00 0.00
3:53 am 03:53 Clear 78 25.6 66 18.9 67 67 VRB 3 6 29.83 1010 10 16 0.00 0.00
4:53 am 04:53 Clear 77 25 67 19.4 71 71 VRB 3 6 29.83 1010 10 16 0.00 0.00
5:53 am 05:53 Clear 76 24.4 68 20 77 77 undefined N/A 29.86 1011 10 16 0.00 0.00
6:53 am 06:53 Sunny 75 23.9 68 20 79 79 VRB 3 6 29.88 1012 10 16 0.00 0.00
7:53 am 07:53 Sunny 77 25 69 20.6 77 77 undefined N/A 29.91 1013 10 16 0.00 0.00
8:53 am 08:53 Sunny 79 26.1 70 21.1 74 74 ESE 7 11 29.93 1014 10 16 0.00 0.00
9:53 am 09:53 Sunny 83 28.3 70 21.1 65 65 VRB 6 9 29.94 1014 10 16 0.00 0.00
10:53 am 10:53 Mostly Cloudy 84 28.9 69 20.6 61 61 VRB 6 9 29.95 1014 10 16 0.00 0.00
11:53 am 11:53 Mostly Cloudy 87 30.6 69 20.6 55 55 VRB 5 7 29.94 1014 10 16 0.00 0.00
12:53 pm 12:53 Cloudy 86 30 69 20.6 57 57 SE 6 9 29.95 1014 10 16 0.00 0.00
1:53 pm 13:53 Mostly Cloudy 87 30.6 69 20.6 55 55 VRB 5 7 29.94 1014 10 16 0.00 0.00
2:53 pm 14:53 Mostly Cloudy 87 30.6 69 20.6 55 55 VRB 5 7 29.92 1013 10 16 0.00 0.00
3:53 pm 15:53 Mostly Cloudy 90 32.2 70 21.1 52 52 VRB 3 6 29.90 1013 10 16 0.00 0.00
4:53 pm 16:53 Sunny 92 33.3 70 21.1 49 49 VRB 3 6 29.89 1012 10 16 0.00 0.00
5:53 pm 17:53 Sunny 90 32.2 68 20 48 48 SE 6 9 29.89 1012 10 16 0.00 0.00
6:53 pm 18:53 Sunny 88 31.1 68 20 52 52 VRB 6 9 29.90 1012 10 16 0.00 0.00
7:53 pm 19:53 Sunny 87 30.6 68 20 53 53 VRB 5 7 29.91 1013 10 16 0.00 0.00
8:53 pm 20:53 Clear 85 29.4 68 20 57 57 VRB 3 6 29.93 1013 10 16 0.00 0.00
9:53 pm 21:53 Partly Cloudy 84 28.9 68 20 59 59 Calm 29.94 1014 10 16 0.00 0.00
10:53 pm 22:53 Cloudy 84 28.9 67 19.4 57 57 VRB 3 6 29.96 1015 10 16 0.00 0.00
11:53 pm 23:53 Mostly Cloudy with Nearby Thunderstorms 80 26.7 70 21.1 71 71 SW 13 20 29.99 1016 10 16 0.00 0.00

Powered by AerisWeather